This demonstration page uses our WeatherBlox Daily Observations layout. Learn more.

40.92945, -100.16068

Hourly Observations for June 24, 2017

Temp ( °F °C ) Dew Point ( °F °C ) Humidity (%) Winds ( mph kmh ) Pressure ( in mb ) Visibility ( mi km ) Precip ( " mm )
12:15 am 00:15 Clear 52 11.2 45 7.1 76 76 NW 6 9 30.21 1023 10 16.0934 0 0
12:35 am 00:35 Clear 52 11 45 7.4 79 79 NW 5 7 30.21 1023 10 16.0934 0 0
12:55 am 00:55 Clear 49 9.5 45 7 85 85 NW 7 11 30.21 1023 10 16.0934 0 0
1:15 am 01:15 Clear 49 9.3 44 6.6 83 83 NW 6 9 30.21 1023 10 16.0934 0 0
1:35 am 01:35 Clear 48 8.7 43 6.2 84 84 Calm 30.21 1023 10 16.0934 0 0
1:55 am 01:55 Clear 47 8.5 43 6.1 85 85 NW 6 9 30.27 1025 10 16.0934 0 0
2:15 am 02:15 Clear 48 8.8 43 6.3 84 84 W 3 6 30.27 1025 10 16.0934 0 0
2:35 am 02:35 Clear 46 8 43 6 87 87 WNW 6 9 30.27 1025 10 16.0934 0 0
2:55 am 02:55 Clear 47 8.5 43 6.3 86 86 W 7 11 30.27 1025 10 16.0934 0 0
3:15 am 03:15 Clear 47 8.4 43 6 85 85 WNW 5 7 30.27 1025 10 16.0934 0 0
3:35 am 03:35 Clear 47 8.2 42 5.7 84 84 WNW 5 7 30.27 1025 10 16.0934 0 0
3:55 am 03:55 Clear 47 8.5 44 6.5 87 87 W 6 9 30.27 1025 10 16.0934 0 0
4:15 am 04:15 Clear 48 9.1 45 7.4 89 89 W 3 6 30.24 1024 10 16.0934 0 0
4:35 am 04:35 Clear 50 10.2 47 8.1 87 87 NW 3 6 30.24 1024 10 16.0934 0 0
4:55 am 04:55 Clear 51 10.6 47 8.1 85 85 NW 5 7 30.24 1024 10 16.0934 0 0
5:15 am 05:15 Clear 51 10.6 47 8.2 85 85 NW 5 7 30.24 1024 10 16.0934 0 0
5:35 am 05:35 Partly Cloudy 51 10.5 47 8.5 88 88 NNW 5 7 30.24 1024 10 16.0934 0 0
5:55 am 05:55 Partly Cloudy 51 10.5 46 7.9 84 84 NW 5 7 30.24 1024 10 16.0934 0 0
6:15 am 06:15 Partly Cloudy 50 10.1 46 8 87 87 WNW 3 6 30.24 1024 10 16.0934 0 0
6:35 am 06:35 Sunny 51 10.3 47 8.2 87 87 Calm 30.24 1024 10 16.0934 0 0
6:55 am 06:55 Mostly Cloudy 51 10.7 46 8 84 84 Calm 30.24 1024 10 16.0934 0 0
7:15 am 07:15 Cloudy 52 11 47 8.3 84 84 Calm 30.24 1024 10 16.0934 0 0
7:35 am 07:35 Cloudy 53 11.6 47 8.5 81 81 W 3 6 30.24 1024 10 16.0934 0 0
7:55 am 07:55 Mostly Cloudy 54 12.3 47 8.4 77 77 W 6 9 30.24 1024 10 16.0934 0 0
8:15 am 08:15 Mostly Cloudy 56 13.1 47 8.2 72 72 WNW 5 7 30.24 1024 10 16.0934 0 0
8:35 am 08:35 Partly Cloudy 58 14.4 46 7.9 65 65 WNW 5 7 30.24 1024 10 16.0934 0 0
8:55 am 08:55 Partly Cloudy 60 15.4 48 9.1 66 66 WNW 3 6 30.24 1024 10 16.0934 0 0
9:15 am 09:15 Sunny 61 16 46 7.9 59 59 WNW 5 7 30.21 1023 10 16.0934 0 0
9:35 am 09:35 Mostly Cloudy 63 17 47 8.4 57 57 WSW 5 7 30.21 1023 10 16.0934 0 0
9:55 am 09:55 Mostly Cloudy 64 18 47 8.6 54 54 W 5 7 30.21 1023 10 16.0934 0 0
10:15 am 10:15 Partly Cloudy 66 19.1 46 8 49 49 WSW 5 7 30.18 1022 10 16.0934 0 0
10:35 am 10:35 Partly Cloudy 69 20.8 43 6 38 38 W 7 11 30.18 1022 10 16.0934 0 0
10:55 am 10:55 Mostly Cloudy 70 20.9 40 4.5 34 34 WSW 7 11 30.18 1022 10 16.0934 0 0
11:15 am 11:15 Partly Cloudy 71 21.9 40 4.2 32 32 SW 7 11 30.18 1022 10 16.0934 0 0
11:35 am 11:35 Partly Cloudy 71 21.6 38 3.4 30 30 W 8 13 30.18 1022 10 16.0934 0 0
11:55 am 11:55 Partly Cloudy 73 22.8 38 3.4 28 28 WSW 5 7 30.15 1021 10 16.0934 0 0
12:15 pm 12:15 Partly Cloudy 71 21.9 36 2.2 27 27 W 5 7 30.18 1022 10 16.0934 0 0
12:35 pm 12:35 Sunny 71 21.8 38 3.4 30 30 WSW 7 11 30.18 1022 10 16.0934 0 0
12:55 pm 12:55 Sunny 71 21.8 38 3.5 30 30 SW 7 11 30.21 1023 10 16.0934 0 0
1:15 pm 13:15 Sunny 72 22.3 39 3.9 30 30 SW 9 15 30.18 1022 10 16.0934 0 0
1:35 pm 13:35 Sunny 71 21.6 40 4.2 32 32 SW 13 20 30.18 1022 10 16.0934 0 0
1:55 pm 13:55 Sunny 71 21.9 39 3.9 31 31 SW 12 19 30.18 1022 10 16.0934 0 0
2:15 pm 14:15 Sunny 71 21.6 40 4.5 33 33 SW 13 20 30.18 1022 7 11.26538 0 0
2:35 pm 14:35 Partly Cloudy 70 21.1 40 4.4 34 34 SW 14 22 30.18 1022 7 11.26538 0 0
2:55 pm 14:55 Mostly Cloudy 71 21.7 41 5.1 34 34 SW 14 22 30.18 1022 7 11.26538 0 0
3:15 pm 15:15 Mostly Cloudy 73 22.8 40 4.6 31 31 SW 13 20 30.15 1021 10 16.0934 0 0
3:35 pm 15:35 Cloudy 71 21.6 40 4.4 33 33 SW 10 17 30.18 1022 10 16.0934 0 0
3:55 pm 15:55 Cloudy 71 21.5 41 4.9 34 34 SW 13 20 30.18 1022 10 16.0934 0 0
4:15 pm 16:15 Cloudy with Light Rain 71 21.5 41 5.2 35 35 SW 10 17 30.15 1021 10 16.0934 0 0
4:35 pm 16:35 Cloudy 72 22.2 39 3.9 30 30 WSW 13 20 30.12 1020 10 16.0934 0 0
4:55 pm 16:55 Cloudy 72 22.4 39 4 30 30 W 9 15 30.12 1020 10 16.0934 0 0
5:15 pm 17:15 Cloudy 73 22.5 38 3.6 29 29 W 8 13 30.12 1020 10 16.0934 0 0
5:35 pm 17:35 Mostly Cloudy 73 22.6 40 4.5 31 31 WSW 8 13 30.12 1020 10 16.0934 0 0
5:55 pm 17:55 Partly Cloudy 73 22.7 40 4.5 31 31 W 8 13 30.09 1019 10 16.0934 0 0
6:15 pm 18:15 Mostly Cloudy 73 23 41 4.8 31 31 W 6 9 30.09 1019 10 16.0934 0 0
6:35 pm 18:35 Partly Cloudy 74 23.2 41 5.1 31 31 WNW 6 9 30.09 1019 10 16.0934 0 0
6:55 pm 18:55 Sunny 74 23.3 44 6.5 34 34 NW 6 9 30.09 1019 10 16.0934 0 0
7:15 pm 19:15 Sunny 76 24.3 42 5.3 29 29 NW 8 13 30.09 1019 10 16.0934 0 0
7:35 pm 19:35 Sunny 76 24.2 40 4.6 28 28 WNW 7 11 30.09 1019 10 16.0934 0 0
7:55 pm 19:55 Sunny 75 23.7 42 5.5 31 31 WNW 5 7 30.09 1019 10 16.0934 0 0
8:15 pm 20:15 Sunny 73 22.6 40 4.5 31 31 NNE 9 15 30.12 1020 10 16.0934 0 0
8:35 pm 20:35 Sunny 69 20.8 40 4.4 34 34 NNE 5 7 30.15 1021 10 16.0934 0 0
8:55 pm 20:55 Sunny 67 19.6 40 4.7 38 38 NE 5 7 30.15 1021 10 16.0934 0 0
9:15 pm 21:15 Clear 66 19.1 39 4 37 37 E 3 6 30.15 1021 10 16.0934 0 0
9:35 pm 21:35 Clear 64 17.5 40 4.4 42 42 NE 3 6 30.18 1022 10 16.0934 0 0
9:55 pm 21:55 Clear 65 18.1 39 3.7 39 39 NNE 3 6 30.18 1022 10 16.0934 0 0
10:15 pm 22:15 Clear 60 15.7 41 5 49 49 Calm 30.21 1023 10 16.0934 0 0
10:35 pm 22:35 Clear 58 14.2 43 6.3 59 59 SW 3 6 30.24 1024 10 16.0934 0 0
10:55 pm 22:55 Clear 56 13.4 44 6.4 63 63 SW 6 9 30.24 1024 10 16.0934 0 0
11:15 pm 23:15 Clear 55 13 44 6.5 65 65 SSW 3 6 30.24 1024 10 16.0934 0 0
11:35 pm 23:35 Clear 54 12.3 44 6.6 68 68 Calm 30.24 1024 10 16.0934 0 0
11:55 pm 23:55 Clear 54 12 43 6.3 68 68 Calm 30.27 1025 10 16.0934 0 0

Powered by AerisWeather